FW2417 Weather Reports


time (UTC)temp
C
wind
direction
speed
KPH
gust
KPH
rain 1hr
cm
rain 24hr
cm
rain mn
cm
humidity
%
barometer
mb
20260504000100 15 208 0.0 6.4 0.00 0.00 0.00 82 1016.0
20260503234556 15 208 0.0 6.4 0.00 0.00 0.00 82 1016.1
20260503233053 15 203 3.2 16.1 0.00 0.00 0.00 82 1016.1
20260503231552 15 207 3.2 14.5 0.00 0.00 0.00 82 1016.2
20260503230057 15 224 4.8 12.9 0.00 0.00 0.00 81 1016.3
20260503224543 15 219 1.6 11.3 0.00 0.00 0.00 81 1016.4
20260503223051 15 155 1.6 6.4 0.00 0.00 0.00 80 1016.4
20260503221547 16 236 0.0 6.4 0.00 0.00 0.00 79 1016.4
20260503220120 16 243 0.0 4.8 0.00 0.00 0.00 77 1016.3
20260503214612 16 228 1.6 6.4 0.00 0.00 0.00 76 1016.3
20260503213103 16 236 0.0 4.8 0.00 0.00 0.00 74 1016.2
20260503211603 16 238 0.0 8.0 0.00 0.00 0.00 73 1016.2
20260503210057 16 242 0.0 4.8 0.00 0.00 0.00 72 1016.0
20260503204552 17 235 0.0 3.2 0.00 0.00 0.00 71 1015.9
20260503203049 17 206 0.0 11.3 0.00 0.00 0.00 69 1015.6
20260503201552 17 246 0.0 8.0 0.00 0.00 0.00 66 1015.4
20260503200035 17 243 0.0 8.0 0.00 0.00 0.00 66 1015.1
20260503194545 18 267 0.0 8.0 0.00 0.00 0.00 67 1014.9
20260503193031 18 228 0.0 16.1 0.00 0.00 0.00 66 1014.7
20260503191502 19 294 0.0 6.4 0.00 0.00 0.00 62 1014.5
20260503190110 20 242 1.6 9.7 0.00 0.00 0.00 59 1014.2
20260503184612 20 214 1.6 20.9 0.00 0.00 0.00 57 1014.1
20260503183106 21 267 1.6 14.5 0.00 0.00 0.00 57 1014.0
20260503181609 21 239 0.0 16.1 0.00 0.00 0.00 53 1014.1
20260503180059 22 260 4.8 24.1 0.00 0.00 0.00 52 1014.0
20260503174618 22 18 1.6 20.9 0.00 0.00 0.00 51 1013.9
20260503173053 22 299 1.6 19.3 0.00 0.00 0.00 49 1014.0
20260503171548 22 246 3.2 19.3 0.00 0.00 0.00 48 1014.0
20260503160114 24 252 1.6 11.3 0.00 0.00 0.00 44 1013.7
20260503120128 23 308 3.2 14.5 0.00 0.00 0.00 53 1015.5
20260503090117 20 208 3.2 17.7 0.00 0.00 0.00 73 1016.2
20260503081600 18 214 3.2 16.1 0.00 0.00 0.00 81 1016.4
20260503071544 17 243 0.0 6.4 0.00 0.00 0.00 85 1016.3
20260503060119 16 221 0.0 1.6 0.00 0.00 0.00 90 1015.8
20260503054614 16 243 0.0 1.6 0.00 0.00 0.00 90 1015.6
20260503053106 16 233 0.0 1.6 0.00 0.00 0.00 90 1015.5
20260503051603 16 233 0.0 1.6 0.00 0.00 0.00 89 1015.6
20260503050100 16 195 0.0 1.6 0.00 0.00 0.00 88 1015.6
20260503044602 16 193 0.0 3.2 0.00 0.00 0.00 87 1015.7
20260503043043 17 232 0.0 3.2 0.00 0.00 0.00 87 1015.8
20260503041600 17 218 0.0 1.6 0.00 0.00 0.00 87 1015.9
20260503040026 17 159 1.6 6.4 0.00 0.00 0.00 87 1015.8
20260503034538 17 249 0.0 1.6 0.00 0.00 0.00 86 1016.0
20260503033003 16 210 0.0 3.2 0.00 0.00 0.00 85 1016.0
20260503031503 16 225 0.0 8.0 0.00 0.00 0.00 85 1016.0
20260503030116 16 201 0.0 3.2 0.00 0.00 0.00 85 1016.1
20260503024502 17 195 0.0 3.2 0.00 0.00 0.00 85 1016.1
20260503023116 17 231 0.0 1.6 0.00 0.00 0.00 86 1016.2
20260503021512 16 221 0.0 3.2 0.00 0.00 0.00 86 1016.2
20260503020056 17 233 0.0 1.6 0.00 0.00 0.00 85 1016.3
20260503014557 17 229 0.0 1.6 0.00 0.00 0.00 85 1016.4
20260503013046 17 250 0.0 3.2 0.00 0.00 0.00 83 1016.6
20260503011553 17 244 0.0 3.2 0.00 0.00 0.00 82 1016.9
20260503010013 17 224 0.0 4.8 0.00 0.00 0.00 81 1017.1
20260503004534 17 252 0.0 3.2 0.00 0.00 0.00 80 1017.2
20260503003010 17 226 0.0 3.2 0.00 0.00 0.00 79 1017.2
20260503001536 17 235 0.0 4.8 0.00 0.00 0.00 79 1017.3